CZ-3B R/B, 62805

Orbit data source: Space-Track

CZ-3B R/B, 62805 is space debris originally from a launch on Thu, 23 Jan 2025 UTC launched from the Xichang Space Center, China (XSC). Debris objects in space refer to the collection of defunct objects orbiting the Earth. Examples of debris include non-operational satellites, rocket bodies, and fragments generated from explosions, collisions, or faulty payload assembly.

Loading next visibility...
Identifier
62805, 2025-017B
Orbit
Active
Country
Flag of CNCN / PRC
Related business
Manufacturer
CALT
Mission
Spacecraft
Bus & Motor
CZ-3A STAGE 3, Unknown motor
Mass
~2,800 kg wet, ~2,800 kg dry
Launch date (UTC)
2025-01-23 (1 year ago)
Launch vehicle
Unknown
Launch site
Xichang Space Center, China (XSC)
Object type
Payload
Rocket body
Debris
Shape & HBR
Cyl + 1 Nozzle, 4.5 m
Radar Cross Section
32.704 m², Large (>1 m²)

Expand to show TLE details & history
Last TLE update: 1 day ago

TLE from 1 day ago
0 CZ-3B R/B
1 62805U 25017B   26033.49420325  .02479913 -41888-6  62020-3 0  9993
2 62805  28.0775 109.5505 4346541 217.5900 102.2726  7.04312100 12997
Epoch: 2026-02-02T11:51Z
TLE epoch observation values (Epoch: 2026-02-02T11:51:39.160Z)
Latitude
Longitude
158.94865°
Altitude
7,846.533 km
Speed
4.624 km/s
True Right ascension
07h 18m 12s
True Declination
0° 00' 00"
Sunlit
Object was in daylight at epoch
Visualization orbit readout
Latitude
Unknown
Longitude
Unknown
Altitude
Unknown
Speed
Unknown
Apparent Right ascension
Unknown
Apparent Declination
Unknown
Sunlit
N/A
Visualization observer readout
Local Sidereal Time
19:38:35
Azimuth
Unknown
Elevation
Unknown
Doppler factor
Unknown
Orbital elements
Apogee altitude
10,120.124 km
Perigee altitude
123.238 km
Semi-major axis
11,499.818 km
Eccentricity
0.43465
Inclination
28.0775°
RAAN
109.5505°
Arg. of periapsis
217.59°
True anomaly
142.45128°
Mean anomaly
102.2726°
Eccentric anomaly
123.1283°
Mean motion
1.75998 °/min
Orbital period
204.55 mins
BSTAR
0.0006202
Loading maneuver chart data...
Computing Atmospheric mass density...
Loading historical data...
Loading historical data...
Loading historical data...
Loading historical data...
Loading historical data...
Loading historical data...
Loading historical data...
Other satellites on launch #17 in the year 2025 (2025-01-23 UTC)

Documentation

Showing up to 5 results
|